| time (UTC) | temp F | wind direction | speed knots | gust knots | rain 1hr in | rain 24hr in | rain mn in | humidity % | barometer mb |
| 20260504223005 | 64 | 201 | 1.7 | 9.6 | 0.00 | 0.00 | 0.00 | 46 | 1006.9 |
| 20260504221546 | 65 | 158 | 0.9 | 8.7 | 0.00 | 0.00 | 0.00 | 44 | 1006.8 |
| 20260504220045 | 67 | 194 | 1.7 | 7.0 | 0.00 | 0.00 | 0.00 | 39 | 1006.7 |
| 20260504214530 | 68 | 217 | 0.0 | 7.0 | 0.00 | 0.00 | 0.00 | 38 | 1006.6 |
| 20260504213026 | 68 | 203 | 0.9 | 7.8 | 0.00 | 0.00 | 0.00 | 36 | 1006.6 |
| 20260504211507 | 69 | 226 | 0.9 | 4.3 | 0.00 | 0.00 | 0.00 | 35 | 1006.5 |
| 20260504210006 | 69 | 231 | 1.7 | 7.0 | 0.00 | 0.00 | 0.00 | 34 | 1006.6 |
| 20260504204556 | 71 | 150 | 1.7 | 7.8 | 0.00 | 0.00 | 0.00 | 33 | 1006.6 |
| 20260504203102 | 72 | 198 | 0.0 | 6.1 | 0.00 | 0.00 | 0.00 | 34 | 1006.6 |
| 20260504201530 | 73 | 205 | 0.0 | 4.3 | 0.00 | 0.00 | 0.00 | 35 | 1006.7 |
| 20260504200026 | 72 | 157 | 1.7 | 5.2 | 0.00 | 0.00 | 0.00 | 33 | 1006.8 |
| 20260504194507 | 71 | 112 | 0.9 | 7.0 | 0.00 | 0.00 | 0.00 | 34 | 1006.9 |
| 20260504193012 | 71 | 181 | 0.0 | 7.8 | 0.00 | 0.00 | 0.00 | 34 | 1006.9 |
| 20260504191546 | 70 | 205 | 0.0 | 7.0 | 0.00 | 0.00 | 0.00 | 34 | 1006.9 |
| 20260504190106 | 70 | 158 | 0.0 | 9.6 | 0.00 | 0.00 | 0.00 | 34 | 1007.0 |
| 20260504184527 | 70 | 295 | 0.0 | 7.0 | 0.00 | 0.00 | 0.00 | 34 | 1007.2 |
| 20260504183030 | 70 | 140 | 0.0 | 6.1 | 0.00 | 0.00 | 0.00 | 31 | 1007.5 |
| 20260504181503 | 69 | 131 | 0.0 | 8.7 | 0.00 | 0.00 | 0.00 | 32 | 1007.6 |
| 20260504180101 | 69 | 147 | 2.6 | 8.7 | 0.00 | 0.00 | 0.00 | 31 | 1007.6 |
| 20260504174541 | 68 | 159 | 0.9 | 7.0 | 0.00 | 0.00 | 0.00 | 33 | 1007.9 |
| 20260504173039 | 68 | 193 | 0.9 | 7.0 | 0.00 | 0.00 | 0.00 | 35 | 1007.9 |
| 20260504171526 | 68 | 215 | 3.5 | 11.3 | 0.00 | 0.00 | 0.00 | 33 | 1008.0 |
| 20260504081600 | 42 | 136 | 0.0 | 0.9 | 0.00 | 0.00 | 0.00 | 66 | 1010.2 |
| 20260504044545 | 41 | 165 | 0.0 | 0.9 | 0.00 | 0.00 | 0.00 | 63 | 1010.2 |
| 20260504043026 | 41 | 145 | 0.0 | 0.9 | 0.00 | 0.00 | 0.00 | 63 | 1010.3 |
| 20260504041523 | 41 | 135 | 0.0 | 0.9 | 0.00 | 0.00 | 0.00 | 65 | 1010.3 |
| 20260504040006 | 40 | 135 | 0.0 | 0.9 | 0.00 | 0.00 | 0.00 | 65 | 1010.1 |
| 20260504034505 | 40 | 136 | 0.0 | 0.9 | 0.00 | 0.00 | 0.00 | 64 | 1010.1 |
| 20260504033054 | 41 | 137 | 0.0 | 0.9 | 0.00 | 0.00 | 0.00 | 59 | 1009.9 |
| 20260504031555 | 42 | 128 | 0.0 | 0.9 | 0.00 | 0.00 | 0.00 | 58 | 1009.9 |
| 20260504030027 | 42 | 143 | 0.0 | 0.9 | 0.00 | 0.00 | 0.00 | 58 | 1009.7 |
| 20260504024526 | 42 | 129 | 0.0 | 0.9 | 0.00 | 0.00 | 0.00 | 59 | 1009.7 |
| 20260504023008 | 42 | 145 | 0.0 | 0.9 | 0.00 | 0.00 | 0.00 | 59 | 1009.6 |
| 20260504021507 | 43 | 174 | 0.0 | 0.9 | 0.00 | 0.00 | 0.00 | 56 | 1009.5 |
| 20260504020048 | 42 | 167 | 0.0 | 0.9 | 0.00 | 0.00 | 0.00 | 58 | 1009.4 |
| 20260504014556 | 42 | 131 | 0.0 | 0.9 | 0.00 | 0.00 | 0.00 | 58 | 1009.3 |
| 20260504013034 | 42 | 138 | 0.0 | 0.9 | 0.00 | 0.00 | 0.00 | 57 | 1009.2 |
| 20260504011527 | 43 | 141 | 0.0 | 0.9 | 0.00 | 0.00 | 0.00 | 57 | 1009.0 |
| 20260504010008 | 43 | 141 | 0.0 | 0.9 | 0.00 | 0.00 | 0.00 | 55 | 1008.9 |
| 20260504004506 | 43 | 139 | 0.0 | 0.9 | 0.00 | 0.00 | 0.00 | 55 | 1008.6 |
| 20260504003046 | 43 | 141 | 0.0 | 0.0 | 0.00 | 0.00 | 0.00 | 55 | 1008.5 |
| 20260504001556 | 44 | 193 | 0.0 | 0.9 | 0.00 | 0.00 | 0.00 | 53 | 1008.3 |
| 20260504000039 | 45 | 194 | 0.0 | 0.0 | 0.00 | 0.00 | 0.00 | 51 | 1008.2 |
| 20260503234526 | 47 | 193 | 0.0 | 0.9 | 0.00 | 0.00 | 0.00 | 48 | 1008.2 |
| 20260503233008 | 48 | 113 | 0.0 | 0.9 | 0.00 | 0.00 | 0.00 | 47 | 1008.1 |
| 20260503231506 | 48 | 339 | 0.0 | 0.9 | 0.00 | 0.00 | 0.00 | 45 | 1008.0 |
| 20260503230048 | 49 | 167 | 0.0 | 4.3 | 0.00 | 0.00 | 0.00 | 44 | 1007.9 |
| 20260503224547 | 50 | 141 | 0.0 | 7.8 | 0.00 | 0.00 | 0.00 | 43 | 1007.7 |